Galena, Nevada Weather observations

Data are for 60 minute period ending nearest time listed.
 Day   Time    Ave.   Ave.  Ave.  Vector   Max.   Total    Solar   
  of    of     Air    Rel.  Wind   Wind    Wind  Precip.   Rad.    
Year   Day     Temp.  Hum.  Speed  Dir.    Gust                    
2026   (PST)    F      %     mph   deg.    mph     in.     W/m2    
------------------------------------------------------------------- 
 246    8:00   56.0    34    6.0    31     15.0    2.02     125  
 246    9:00   65.0    29    7.0    47     16.0    2.02     623  
 246   10:00   65.0    32   13.0   184     29.0    2.02     795  
 246   11:00   60.0    38   15.0   194     31.0    2.02     354  
 246   12:00   66.0    32   14.0   198     28.0    2.02     684  
 246   13:00   64.0    36   16.0   207     31.0    2.02     906  
 246   14:00   64.0    39   19.0   189     32.0    2.02     797  
 246   15:00   59.0    49   10.0   204     26.0    2.02     231  
 246   16:00   60.0    50   14.0   200     29.0    2.02     358  
 246   17:00   58.0    50   15.0   181     29.0    2.02     171  
 246   18:00   56.0    60   13.0   182     35.0    2.02     108  
 246   19:00   56.0    54   13.0   178     26.0    2.02      13  
 246   20:00   55.0    55   15.0   183     32.0    2.02       0  
 246   21:00   53.0    64   17.0   176     37.0    2.02       0  
 246   22:00   54.0    58   12.0   186     29.0    2.02       0  
 246   23:00   53.0    64    9.0   174     27.0    2.02       0  
 247    0:00   54.0    57   12.0   192     23.0    2.02       0  
 247    1:00   53.0    64   14.0   188     29.0    2.02       0  
 247    2:00   55.0    58   12.0   184     30.0    2.02       0  
 247    3:00   55.0    57   11.0   194     32.0    2.02       0  
 247    4:00   54.0    58    9.0   185     24.0    2.02       0  
 247    5:00   54.0    60    8.0   208     22.0    2.02       0  
 247    6:00   53.0    67    8.0   186     17.0    2.02       1  
 247    7:00   54.0    63    8.0   185     16.0    2.02      34  

Return to Galena, Nevada graphs page.


Western Regional Climate Center,wrcc@dri.edu